FW2111 Weather Reports


time (UTC)temp
F
wind
direction
speed
knots
gust
knots
rain 1hr
in
rain 24hr
in
rain mn
in
humidity
%
barometer
mb
20260504034102 59 210 1.7 4.3 0.00 0.00 0.00 24 999.6
20260504033835 59 201 0.9 4.3 0.00 0.00 0.00 24 999.7
20260504033041 59 208 0.0 1.7 0.00 0.00 0.00 23 999.9
20260504032534 60 208 0.9 2.6 0.00 0.00 0.00 22 1000.0
20260504032032 60 209 0.9 4.3 0.00 0.00 0.00 22 1000.2
20260504031516 60 209 1.7 4.3 0.00 0.00 0.00 22 1000.2
20260504031015 60 217 0.9 3.5 0.00 0.00 0.00 21 1000.4
20260504030513 60 196 1.7 6.1 0.00 0.00 0.00 22 1000.4
20260504025955 61 228 1.7 6.1 0.00 0.00 0.00 21 1000.6
20260504025454 61 207 1.7 7.0 0.00 0.00 0.00 21 1000.6
20260504024952 61 199 1.7 7.0 0.00 0.00 0.00 20 1000.7
20260504024721 61 198 1.7 4.3 0.00 0.00 0.00 20 1000.7
20260504024158 61 198 2.6 4.3 0.00 0.00 0.00 20 1000.9
20260504023402 62 223 2.6 6.1 0.00 0.00 0.00 20 1000.8
20260504022835 62 252 2.6 6.1 0.00 0.00 0.00 20 1000.9
20260504022812 62 229 2.6 6.1 0.00 0.00 0.00 19 1001.0
20260504022427 62 258 3.5 6.1 0.00 0.00 0.00 19 1001.1
20260504021241 61 220 2.6 5.2 0.00 0.00 0.00 20 1001.2
20260504020716 61 246 2.6 4.3 0.00 0.00 0.00 20 1001.3
20260504020150 60 261 1.7 3.5 0.00 0.00 0.00 21 1001.4
20260504015856 60 263 2.6 5.2 0.00 0.00 0.00 24 1001.4
20260504015057 60 275 2.6 3.5 0.00 0.00 0.00 21 1001.5
20260504014531 61 278 2.6 5.2 0.00 0.00 0.00 20 1001.6
20260504014028 62 270 2.6 5.2 0.00 0.00 0.00 19 1001.7
20260504013737 62 269 2.6 3.5 0.00 0.00 0.00 19 1001.8
20260504012959 62 259 2.6 3.5 0.00 0.00 0.00 20 1001.8
20260504012457 62 248 1.7 3.5 0.00 0.00 0.00 19 1001.8
20260504011928 63 248 1.7 3.5 0.00 0.00 0.00 17 1001.9
20260504011403 64 247 1.7 2.6 0.00 0.00 0.00 17 1002.0
20260504010901 64 247 1.7 2.6 0.00 0.00 0.00 17 1002.0
20260504010358 65 246 0.9 2.6 0.00 0.00 0.00 16 1002.1
20260504005847 65 250 1.7 5.2 0.00 0.00 0.00 16 1002.1
20260504005615 65 250 1.7 5.2 0.00 0.00 0.00 15 1002.2
20260504004845 65 219 1.7 6.1 0.00 0.00 0.00 15 1002.3
20260504004324 65 219 1.7 5.2 0.00 0.00 0.00 15 1002.4
20260504003814 65 234 0.9 5.2 0.00 0.00 0.00 15 1002.3
20260504003310 66 235 1.7 7.0 0.00 0.00 0.00 16 1002.5
20260504002810 66 235 2.6 7.0 0.00 0.00 0.00 15 1002.4
20260504002242 66 235 1.7 3.5 0.00 0.00 0.00 15 1002.6
20260504001715 66 241 2.6 7.8 0.00 0.00 0.00 15 1002.6
20260504001212 66 250 3.5 9.6 0.00 0.00 0.00 15 1002.6
20260504000710 66 271 2.6 9.6 0.00 0.00 0.00 15 1002.7
20260504000142 66 232 4.3 8.7 0.00 0.00 0.00 15 1002.8
20260503235640 66 297 5.2 13.9 0.00 0.00 0.00 15 1002.8
20260503235114 66 248 5.2 13.9 0.00 0.00 0.00 14 1002.6
20260503234547 67 305 3.5 12.2 0.00 0.00 0.00 14 1002.7
20260503234044 67 342 2.6 6.1 0.00 0.00 0.00 14 1002.7
20260503233516 67 333 2.6 12.2 0.00 0.00 0.00 14 1002.7
20260503233014 67 238 3.5 12.2 0.00 0.00 0.00 14 1002.8
20260503232719 67 270 6.1 13.9 0.00 0.00 0.00 14 1002.9
20260503232424 67 310 7.0 13.9 0.00 0.00 0.00 13 1002.9
20260503232027 67 325 7.0 11.3 0.00 0.00 0.00 14 1003.0
20260503230914 67 319 6.1 13.9 0.00 0.00 0.00 13 1003.1
20260503230411 67 279 5.2 12.2 0.00 0.00 0.00 13 1003.3
20260503225844 66 238 6.1 15.6 0.00 0.00 0.00 14 1003.5
20260503225550 66 277 6.1 15.6 0.00 0.00 0.00 14 1003.5
20260503224751 67 286 6.1 20.0 0.00 0.00 0.00 14 1003.5
20260503224224 67 306 6.1 20.0 0.00 0.00 0.00 13 1003.6
20260503223721 68 277 5.2 10.4 0.00 0.00 0.00 14 1003.3
20260503223218 68 217 5.2 14.8 0.00 0.00 0.00 15 1003.5
20260503222650 67 342 5.2 14.8 0.00 0.00 0.00 15 1003.5
20260503222145 67 280 5.2 13.0 0.00 0.00 0.00 14 1003.5
20260503221643 68 274 4.3 13.0 0.00 0.00 0.00 14 1003.6
20260503221140 67 191 6.1 15.6 0.00 0.00 0.00 13 1003.5
20260503220616 67 300 7.0 15.6 0.00 0.00 0.00 14 1003.5
20260503220101 67 355 7.0 13.0 0.00 0.00 0.00 14 1003.5
20260503215600 67 287 7.8 17.4 0.00 0.00 0.00 13 1003.6
20260503215059 67 244 6.1 17.4 0.00 0.00 0.00 15 1003.6
20260503214802 67 238 5.2 14.8 0.00 0.00 0.00 16 1003.6
20260503214259 67 245 6.1 15.6 0.00 0.00 0.00 15 1003.7
20260503213501 66 294 7.8 15.6 0.00 0.00 0.00 15 1003.7
20260503212959 67 299 7.8 13.9 0.00 0.00 0.00 15 1003.7
20260503212432 67 286 6.1 13.9 0.00 0.00 0.00 15 1003.8
20260503211915 67 324 6.1 14.8 0.00 0.00 0.00 16 1003.8
20260503211418 66 276 6.1 14.8 0.00 0.00 0.00 16 1003.9
20260503210850 67 321 5.2 13.0 0.00 0.00 0.00 15 1004.0
20260503210349 66 347 6.1 16.5 0.00 0.00 0.00 14 1004.0
20260503205824 66 261 7.8 18.2 0.00 0.00 0.00 16 1004.0
20260503205256 65 252 7.8 18.2 0.00 0.00 0.00 16 1004.0
20260503204754 65 316 7.0 15.6 0.00 0.00 0.00 15 1004.2
20260503204228 65 252 7.0 15.6 0.00 0.00 0.00 16 1004.3
20260503203702 66 266 7.8 15.6 0.00 0.00 0.00 16 1004.4
20260503203202 65 242 7.8 13.9 0.00 0.00 0.00 16 1004.2
20260503202636 65 279 7.8 19.1 0.00 0.00 0.00 14 1004.6
20260503202134 65 333 7.0 19.1 0.00 0.00 0.00 15 1004.7
20260503201611 66 215 5.2 15.6 0.00 0.00 0.00 14 1004.6
20260503201110 66 96 4.3 11.3 0.00 0.00 0.00 15 1004.6
20260503200843 65 231 5.2 12.2 0.00 0.00 0.00 15 1004.5
20260503200110 65 293 6.1 15.6 0.00 0.00 0.00 15 1004.7
20260503195611 65 45 7.8 15.6 0.00 0.00 0.00 15 1004.7
20260503195112 64 297 7.8 18.2 0.00 0.00 0.00 14 1004.8
20260503194823 65 230 6.1 18.2 0.00 0.00 0.00 13 1004.7
20260503194050 65 10 6.1 13.0 0.00 0.00 0.00 14 1004.9
20260503193552 64 321 7.0 17.4 0.00 0.00 0.00 14 1005.1
20260503193027 64 317 8.7 19.1 0.00 0.00 0.00 13 1005.2
20260503192519 64 268 7.8 19.1 0.00 0.00 0.00 13 1005.1
20260503191955 64 239 7.8 19.1 0.00 0.00 0.00 12 1005.2
20260503191458 63 260 7.8 17.4 0.00 0.00 0.00 11 1005.4
20260503191226 64 261 7.8 18.2 0.00 0.00 0.00 10 1005.3
20260503190457 63 249 9.6 18.2 0.00 0.00 0.00 10 1005.2
20260503185937 63 291 8.7 20.0 0.00 0.00 0.00 8 1005.4
20260503185912 63 275 7.0 18.2 0.00 0.00 0.00 9 1005.5
20260503185119 63 236 7.8 19.1 0.00 0.00 0.00 10 1005.5
20260503184350 63 335 8.7 19.1 0.00 0.00 0.00 11 1005.6
20260503183850 63 328 7.8 19.1 0.00 0.00 0.00 10 1005.8
20260503183329 62 325 9.6 19.1 0.00 0.00 0.00 11 1005.7
20260503183042 62 188 9.6 17.4 0.00 0.00 0.00 8 1005.6
20260503182310 63 287 7.8 16.5 0.00 0.00 0.00 10 1005.7
20260503181809 63 292 7.8 16.5 0.00 0.00 0.00 10 1005.7
20260503181541 62 259 7.8 16.5 0.00 0.00 0.00 12 1005.9
20260503180752 62 300 8.7 17.4 0.00 0.00 0.00 11 1006.0
20260503180251 62 256 7.8 17.4 0.00 0.00 0.00 11 1006.0
20260503175729 63 268 7.0 16.5 0.00 0.00 0.00 10 1006.0
20260503175457 62 244 7.8 16.5 0.00 0.00 0.00 11 1006.0
20260503175048 63 309 6.1 13.9 0.00 0.00 0.00 11 1006.1
20260503174940 63 101 7.8 20.0 0.00 0.00 0.00 9 1006.1
20260503173647 62 264 7.8 20.0 0.00 0.00 0.00 9 1006.0
20260503173122 62 138 6.1 17.4 0.00 0.00 0.00 12 1006.0
20260503172557 62 273 6.1 17.4 0.00 0.00 0.00 11 1005.9
20260503172050 62 30 7.8 15.6 0.00 0.00 0.00 12 1006.1
20260503171524 62 284 7.8 15.6 0.00 0.00 0.00 11 1006.0
20260503171016 62 296 6.1 15.6 0.00 0.00 0.00 14 1006.2
20260503170451 62 258 6.1 20.9 0.00 0.00 0.00 16 1006.0
20260503150459 59 242 7.8 13.9 0.00 0.00 0.00 38 1005.8
20260503140222 59 225 4.3 9.6 0.00 0.00 0.00 42 1005.9
20260503131020 46 162 1.7 5.2 0.00 0.00 0.00 50 1006.1
20260503130953 46 154 1.7 5.2 0.00 0.00 0.00 50 1006.2
20260503120203 42 209 0.0 0.0 0.00 0.00 0.00 59 1006.2
20260503110459 39 223 0.0 1.7 0.00 0.00 0.00 67 1005.7
20260503100212 41 223 1.7 2.6 0.00 0.00 0.00 66 1005.9
20260503090445 42 220 0.9 2.6 0.00 0.00 0.00 64 1006.0
20260503090213 42 220 1.7 2.6 0.00 0.00 0.00 63 1006.0
20260503081454 45 217 0.9 2.6 0.00 0.00 0.00 58 1006.4
20260503080700 45 185 0.0 0.0 0.00 0.00 0.00 57 1006.4
20260503080156 46 185 0.9 1.7 0.00 0.00 0.00 57 1006.5
20260503072526 46 169 0.9 1.7 0.00 0.00 0.00 57 1006.8
20260503072022 45 169 0.0 1.7 0.00 0.00 0.00 54 1006.9
20260503071740 45 169 0.0 1.7 0.00 0.00 0.00 52 1007.1
20260503070942 44 170 0.0 0.0 0.00 0.00 0.00 51 1007.1
20260503070916 44 170 0.0 1.7 0.00 0.00 0.00 53 1007.1
20260503070143 44 170 0.0 1.7 0.00 0.00 0.00 53 1007.2
20260503060110 42 171 0.0 0.0 0.00 0.00 0.00 62 1008.2
20260503055018 41 171 0.0 0.9 0.00 0.00 0.00 61 1008.3
20260503054501 41 171 0.0 0.9 0.00 0.00 0.00 61 1008.3
20260503054003 41 171 0.0 0.0 0.00 0.00 0.00 62 1008.3
20260503053733 41 171 0.0 0.9 0.00 0.00 0.00 62 1008.4
20260503053001 41 171 0.0 0.9 0.00 0.00 0.00 62 1008.4
20260503052732 41 171 0.0 0.0 0.00 0.00 0.00 62 1008.5
20260503052000 41 171 0.0 1.7 0.00 0.00 0.00 62 1008.6
20260503051434 41 171 0.9 1.7 0.00 0.00 0.00 62 1008.6
20260503050930 41 171 0.9 1.7 0.00 0.00 0.00 62 1008.7
20260503050428 41 171 0.9 1.7 0.00 0.00 0.00 63 1008.8
20260503045924 41 171 0.0 1.7 0.00 0.00 0.00 64 1008.8
20260503045422 41 171 0.0 0.9 0.00 0.00 0.00 64 1008.9
20260503044856 41 171 0.0 1.7 0.00 0.00 0.00 64 1008.8
20260503044331 41 171 0.0 1.7 0.00 0.00 0.00 63 1008.8
20260503044034 41 171 0.9 2.6 0.00 0.00 0.00 62 1009.0
20260503043258 41 171 0.9 2.6 0.00 0.00 0.00 62 1008.9
20260503042755 41 171 0.9 3.5 0.00 0.00 0.00 62 1008.9
20260503042230 41 171 0.9 3.5 0.00 0.00 0.00 60 1008.8
20260503041702 41 186 0.9 2.6 0.00 0.00 0.00 61 1008.8
20260503041200 41 186 0.9 0.9 0.00 0.00 0.00 60 1009.1
20260503040906 41 186 0.9 2.6 0.00 0.00 0.00 59 1009.2
20260503040405 41 186 0.9 2.6 0.00 0.00 0.00 59 1009.2
20260503035604 41 187 0.9 2.6 0.00 0.00 0.00 57 1009.3
20260503035600 41 187 0.9 3.5 0.00 0.00 0.00 59 1009.3
20260503035054 41 188 0.9 3.5 0.00 0.00 0.00 58 1009.3